Regional Weather Roundup
Issued by NWS Sioux Falls, SD

Home | Current Version | Previous Version | Text Only | Print | Product List | Glossary Off
Versions: 1 2 3 4 5 6 7 8 9 10 11 12 13 14 15 16 17 18 19 20 21 22 23 24 25 26 27 28 29 30 31 32 33 34 35 36 37 38 39 40 41 42 43 44 45 46 47 48 49 50

976
ASUS43 KFSD 260902
RWRFSD

WEATHER ROUNDUP FOR SE SOUTH DAKOTA/SW MINNESOTA/NW IOWA
NATIONAL WEATHER SERVICE SIOUX FALLS SD
400 AM CDT TUE JUL 26 2016

NOTE: "FAIR" INDICATES FEW OR NO CLOUDS BELOW 12,000 FEET WITH NO
SIGNIFICANT WEATHER AND OR OBSTRUCTIONS TO VISIBILITY.


SDZ038>040-050-052>070-261000-
SOUTHEAST SOUTH DAKOTA

CITY           SKY/WX    TMP DP  RH WIND       PRES   REMARKS
BROOKINGS      CLEAR     67  63  87 S9        30.05F
CHAMBERLAIN    CLEAR     74  65  71 S10       30.02F
HURON          CLEAR     66  59  78 S8        30.00F
MADISON        FAIR      64  64 100 S9        30.07F
MITCHELL       PTCLDY    66  62  87 S6        30.03F
SIOUX FALLS    CLEAR     70  63  78 SW6       30.07F
WINNER         FAIR      75  60  59 S20G25    30.03F
YANKTON        CLEAR     66  61  82 SE6       30.05F
$$

MNZ071-072-080-081-089-090-097-098-261000-
SOUTHWEST MINNESOTA

CITY           SKY/WX    TMP DP  RH WIND       PRES   REMARKS
FAIRMONT       CLEAR     66  61  82 S7        30.07S
JACKSON        CLEAR     68  63  83 SW6       30.09F
LUVERNE        CLEAR     61  59  94 S3        30.09S FOG
MARSHALL       CLEAR     70  64  81 SW12      30.03F
MONTEVIDEO     CLEAR     68  63  83 SW7       30.04S
REDWOOD FALLS  CLEAR     68  63  84 S8        30.03F
TRACY          CLEAR     71  65  82 SW15      30.05F
WINDOM         CLEAR     68  63  83 SW5       30.08S
WORTHINGTON    CLEAR     70  64  81 SW8       30.09F
$$

IAZ001>003-012>014-020>022-031-032-NEZ013-014-SDZ071-261000-
NORTHWEST IOWA

CITY           SKY/WX    TMP DP  RH WIND       PRES   REMARKS
CHEROKEE       CLEAR     63  63  99 CALM      30.09F
DENISON        CLEAR     61  61 100 CALM      30.08S
ESTHERVILLE    CLEAR     64  62  93 SW6       30.09S
LE MARS        CLEAR     64  63  94 CALM      30.09S
SHELDON        CLEAR     63  63 100 SE5       30.08F
SIOUX CITY     CLEAR     65  62  90 E5        30.08S
SPENCER        CLEAR     64  61  90 CALM      30.09F
STORM LAKE     CLEAR     64  63  94 SW5       30.11S
$$

ABBREVIATIONS USED IN REMARKS
   TC - TEMPERATURE IN CELSIUS
  WCI - WIND CHILL INDEX
   HX - HEAT INDEX
  VSB - VISIBILITY





USA.gov is the U.S. government's official web portal to all federal, state and local government web resources and services.